Showing default

GEESAT 2-05, 58909

Orbit data source: Space-Track

GEESAT 2-05, 58909 is a payload satellite owned by GeeSpace (CN) in LEO that was launched on Fri, 02 Feb 2024 UTC via a CHANG ZHENG 2C launch vehicle from the Xichang Space Center, China (XSC). Payload-class satellites include a variety of spacecraft equipped with specific instruments for various scientific and technological missions. These include communications satellites like Starlink; space stations such as the ISS; scientific satellites like the Hubble; Earth observation satellites from companies like Planet Labs, Umbra, and HawkEye 360; GPS; miniature CubeSats for education and research; and military/defense satellites.

Loading next visibility...
Identifier
58909, 2024-023E
Orbit
LEO
Country
Flag of CNCN / PRC
Related business
Manufacturer
Taizhou Xingkong
Mission
Operational Commercial Navigation
Bus & Motor
GEESAT1, Unknown motor
Mass
130 kg wet, 130 kg dry
Launch date (UTC)
2024-02-02 (2 years ago)
Launch vehicle
CHANG ZHENG 2C
Launch site
Xichang Space Center, China (XSC)
Object type
Payload
Rocket body
Debris
Shape & HBR
Box + 2 Pan, 1.0 m
Radar Cross Section
0.833 m², Medium (>0.1 m² and < 1m²)

Expand to show TLE details & history
Last TLE update: 19 hours ago

TLE from 19 hours ago
0 GEESAT 2-05
1 58909U 24023E   25249.30889206  .00004726  00000-0  51567-3 0  9996
2 58909  50.0022 231.6616 0008334  97.1476 263.0413 14.89450968 86747
Epoch: 2025-09-06T07:24Z
TLE epoch observation values (Epoch: 2025-09-06T07:24:48.273Z)
Latitude
-0.00002°
Longitude
134.81588°
Altitude
600.905 km
Speed
7.56 km/s
True Right ascension
15h 26m 38s
True Declination
0° 00' 00"
Sunlit
Object was in daylight at epoch
Visualization orbit readout
Latitude
Unknown
Longitude
Unknown
Altitude
Unknown
Speed
Unknown
Apparent Right ascension
Unknown
Apparent Declination
Unknown
Sunlit
N/A
Visualization observer readout
Local Sidereal Time
18:11:24
Azimuth
Unknown
Elevation
Unknown
Doppler factor
Unknown
Orbital elements
Apogee altitude
606.226 km
Perigee altitude
594.594 km
Semi-major axis
6,978.547 km
Eccentricity
0.00083
Inclination
50.0022°
RAAN
231.6616°
Arg. of periapsis
97.1476°
True anomaly
262.94651°
Mean anomaly
263.0413°
Eccentric anomaly
262.99391°
Mean motion
3.72302 °/min
Orbital period
96.7 mins
BSTAR
0.00051567
Loading maneuver chart data...
Computing Atmospheric mass density...
Loading historical data...
Loading historical data...
Loading historical data...
Loading historical data...
Loading historical data...
Loading historical data...
Loading historical data...

Documentation

Showing up to 5 results
|